<?xml version="1.0" encoding="UTF-8" standalone="no" ?>
<gpx xmlns="http://www.topografix.com/GPX/1/1" xmlns:xsi="http://www.w3.org/2001/XMLSchema-instance" xsi:schemaLocation="http://www.topografix.com/GPX/1/1 http://www.topografix.com/GPX/1/1/gpx.xsd" version="1.1" creator="VisuGPX - https://www.visugpx.com">
  <metadata>
    <name>Gorges du Tarn et causses</name>
    <desc><![CDATA[Castelbouc ste enimie la Malène  cirque des baumes les vignes Pierre le Rozier v2]]></desc>
  </metadata>
  <wpt lat="44.21902" lon="3.26139">
    <ele>898.7</ele>
  </wpt>
  <wpt lat="44.19407" lon="3.22936">
    <ele>690.8</ele>
  </wpt>
  <wpt lat="44.19883" lon="3.22555">
    <ele>808.2</ele>
  </wpt>
  <wpt lat="44.19331" lon="3.21543">
    <ele>581.7</ele>
  </wpt>
  <wpt lat="44.31108" lon="3.24317">
    <ele>764.2</ele>
  </wpt>
  <wpt lat="44.31239" lon="3.24288">
    <ele>829.9</ele>
  </wpt>
  <wpt lat="44.21967" lon="3.23447">
    <ele>813.2</ele>
  </wpt>
  <wpt lat="44.22967" lon="3.23878">
    <ele>788.7</ele>
  </wpt>
  <wpt lat="44.23447" lon="3.23763">
    <ele>742.1</ele>
  </wpt>
  <wpt lat="44.23928" lon="3.23749">
    <ele>800.2</ele>
  </wpt>
  <wpt lat="44.24031" lon="3.24007">
    <ele>838.7</ele>
  </wpt>
  <wpt lat="44.2072" lon="3.2302">
    <ele>706.5</ele>
  </wpt>
  <wpt lat="44.2625" lon="3.25718">
    <ele>1000.2</ele>
  </wpt>
  <wpt lat="44.21488" lon="3.26076">
    <ele>877.2</ele>
  </wpt>
  <wpt lat="44.19391" lon="3.23061">
    <ele>716.4</ele>
  </wpt>
  <wpt lat="44.19383" lon="3.23308">
    <ele>751.6</ele>
  </wpt>
  <wpt lat="44.22024" lon="3.22956">
    <ele>704.5</ele>
  </wpt>
  <wpt lat="44.2073" lon="3.24151">
    <ele>868.3</ele>
  </wpt>
  <wpt lat="44.21593" lon="3.2603">
    <ele>884.5</ele>
  </wpt>
  <wpt lat="44.26696" lon="3.2432">
    <ele>907.7</ele>
  </wpt>
  <wpt lat="44.31854" lon="3.24998">
    <ele>867.2</ele>
  </wpt>
  <wpt lat="44.30307" lon="3.28486">
    <ele>867.7</ele>
  </wpt>
  <wpt lat="44.31187" lon="3.29871">
    <ele>833</ele>
  </wpt>
  <wpt lat="44.31364" lon="3.30549">
    <ele>773</ele>
  </wpt>
  <wpt lat="44.30264" lon="3.32484">
    <ele>457</ele>
  </wpt>
  <wpt lat="44.30054" lon="3.31711">
    <ele>448.5</ele>
  </wpt>
  <wpt lat="44.30144" lon="3.33522">
    <ele>846.7</ele>
  </wpt>
  <wpt lat="44.29928" lon="3.35262">
    <ele>805.8</ele>
  </wpt>
  <wpt lat="44.33585" lon="3.42023">
    <ele>1140</ele>
  </wpt>
  <wpt lat="44.33563" lon="3.38493">
    <ele>497.1</ele>
  </wpt>
  <wpt lat="44.22652" lon="3.25862">
    <ele>979.2</ele>
  </wpt>
  <wpt lat="44.19407" lon="3.22936">
    <ele>690.8</ele>
  </wpt>
  <wpt lat="44.19883" lon="3.22555">
    <ele>808.2</ele>
  </wpt>
  <wpt lat="44.19331" lon="3.21543">
    <ele>581.7</ele>
  </wpt>
  <wpt lat="44.31108" lon="3.24317">
    <ele>764.2</ele>
  </wpt>
  <wpt lat="44.31239" lon="3.24288">
    <ele>829.9</ele>
  </wpt>
  <wpt lat="44.21967" lon="3.23447">
    <ele>813.2</ele>
  </wpt>
  <wpt lat="44.22967" lon="3.23878">
    <ele>788.7</ele>
  </wpt>
  <wpt lat="44.23447" lon="3.23763">
    <ele>742.1</ele>
  </wpt>
  <wpt lat="44.23928" lon="3.23749">
    <ele>800.2</ele>
  </wpt>
  <wpt lat="44.24031" lon="3.24007">
    <ele>838.7</ele>
  </wpt>
  <wpt lat="44.2072" lon="3.2302">
    <ele>706.5</ele>
  </wpt>
  <wpt lat="44.26087" lon="3.25653">
    <ele>999.9</ele>
  </wpt>
  <wpt lat="44.21488" lon="3.26076">
    <ele>877.2</ele>
  </wpt>
  <wpt lat="44.19391" lon="3.23061">
    <ele>716.4</ele>
  </wpt>
  <wpt lat="44.19383" lon="3.23308">
    <ele>751.6</ele>
  </wpt>
  <wpt lat="44.22024" lon="3.22956">
    <ele>704.5</ele>
  </wpt>
  <wpt lat="44.21247" lon="3.24243">
    <ele>877.3</ele>
  </wpt>
  <wpt lat="44.21593" lon="3.2603">
    <ele>884.5</ele>
  </wpt>
  <wpt lat="44.26696" lon="3.2432">
    <ele>907.7</ele>
  </wpt>
  <wpt lat="44.31854" lon="3.24998">
    <ele>867.2</ele>
  </wpt>
  <wpt lat="44.30307" lon="3.28486">
    <ele>867.7</ele>
  </wpt>
  <wpt lat="44.31187" lon="3.29871">
    <ele>833</ele>
  </wpt>
  <wpt lat="44.31364" lon="3.30549">
    <ele>773</ele>
  </wpt>
  <wpt lat="44.2903" lon="3.29529">
    <ele>907</ele>
  </wpt>
  <wpt lat="44.30054" lon="3.31711">
    <ele>448.5</ele>
  </wpt>
  <wpt lat="44.30144" lon="3.33522">
    <ele>846.7</ele>
  </wpt>
  <wpt lat="44.29928" lon="3.35262">
    <ele>805.8</ele>
  </wpt>
  <wpt lat="44.33585" lon="3.42023">
    <ele>1140</ele>
  </wpt>
  <wpt lat="44.33563" lon="3.38493">
    <ele>497.1</ele>
  </wpt>
  <trk>
    <name><![CDATA[Gorges du Tarn et causses_1]]></name>
    <desc><![CDATA[Castelboux- ste enimie- puech alluech- coperlac- la Malène bivouac tarn]]></desc>
    <extensions>
      <line xmlns="http://www.topografix.com/GPX/gpx_style/0/2">
        <color>0000FF</color>
        <opacity>0.9</opacity>
        <width>3</width>
        <dasharray>3</dasharray>
      </line>
    </extensions>
    <trkseg>
      <trkpt lat="44.33963" lon="3.46568">
        <ele>490.8</ele>
        <time>2021-06-01T08:50:47.000Z</time>
      </trkpt>
      <trkpt lat="44.33963" lon="3.46568">
        <ele>490.8</ele>
        <time>2021-06-01T08:50:47.000Z</time>
      </trkpt>
      <trkpt lat="44.33963" lon="3.46568">
        <ele>490.8</ele>
        <time>2021-06-01T08:50:47.000Z</time>
      </trkpt>
      <trkpt lat="44.33961" lon="3.46483">
        <ele>507.6</ele>
        <time>2021-06-01T08:51:19.825Z</time>
      </trkpt>
      <trkpt lat="44.34001" lon="3.46456">
        <ele>498.9</ele>
        <time>2021-06-01T08:51:23.242Z</time>
      </trkpt>
      <trkpt lat="44.34053" lon="3.46441">
        <ele>492.6</ele>
        <time>2021-06-01T08:51:27.314Z</time>
      </trkpt>
      <trkpt lat="44.34095" lon="3.4642">
        <ele>487.3</ele>
        <time>2021-06-01T08:51:30.747Z</time>
      </trkpt>
      <trkpt lat="44.34078" lon="3.46381">
        <ele>492</ele>
        <time>2021-06-01T08:51:48.089Z</time>
      </trkpt>
      <trkpt lat="44.34073" lon="3.4636">
        <ele>494.6</ele>
        <time>2021-06-01T08:51:56.580Z</time>
      </trkpt>
      <trkpt lat="44.34089" lon="3.46358">
        <ele>493.6</ele>
        <time>2021-06-01T08:51:57.806Z</time>
      </trkpt>
      <trkpt lat="44.3412" lon="3.46379">
        <ele>493.2</ele>
        <time>2021-06-01T08:52:01.975Z</time>
      </trkpt>
      <trkpt lat="44.34145" lon="3.46445">
        <ele>483.7</ele>
        <time>2021-06-01T08:52:06.106Z</time>
      </trkpt>
      <trkpt lat="44.34281" lon="3.46459">
        <ele>488.9</ele>
        <time>2021-06-01T08:52:35.142Z</time>
      </trkpt>
      <trkpt lat="44.34433" lon="3.46402">
        <ele>489</ele>
        <time>2021-06-01T08:52:57.107Z</time>
      </trkpt>
      <trkpt lat="44.34568" lon="3.46344">
        <ele>485.5</ele>
        <time>2021-06-01T08:53:11.677Z</time>
      </trkpt>
      <trkpt lat="44.34635" lon="3.46265">
        <ele>489.7</ele>
        <time>2021-06-01T08:53:32.641Z</time>
      </trkpt>
      <trkpt lat="44.34635" lon="3.46227">
        <ele>493.7</ele>
        <time>2021-06-01T08:53:47.299Z</time>
      </trkpt>
      <trkpt lat="44.34759" lon="3.46063">
        <ele>491.3</ele>
        <time>2021-06-01T08:54:07.423Z</time>
      </trkpt>
      <trkpt lat="44.34811" lon="3.45974">
        <ele>495.4</ele>
        <time>2021-06-01T08:54:27.302Z</time>
      </trkpt>
      <trkpt lat="44.34917" lon="3.45803">
        <ele>491.9</ele>
        <time>2021-06-01T08:54:44.656Z</time>
      </trkpt>
      <trkpt lat="44.35016" lon="3.45597">
        <ele>495.9</ele>
        <time>2021-06-01T08:55:15.724Z</time>
      </trkpt>
      <trkpt lat="44.35173" lon="3.45336">
        <ele>506</ele>
        <time>2021-06-01T08:56:10.176Z</time>
      </trkpt>
      <trkpt lat="44.35208" lon="3.45211">
        <ele>516.7</ele>
        <time>2021-06-01T08:56:49.130Z</time>
      </trkpt>
      <trkpt lat="44.35193" lon="3.45035">
        <ele>520.8</ele>
        <time>2021-06-01T08:57:14.096Z</time>
      </trkpt>
      <trkpt lat="44.35266" lon="3.44802">
        <ele>484.7</ele>
        <time>2021-06-01T08:57:28.110Z</time>
      </trkpt>
      <trkpt lat="44.35218" lon="3.44685">
        <ele>527.3</ele>
        <time>2021-06-01T08:58:19.571Z</time>
      </trkpt>
      <trkpt lat="44.35301" lon="3.44621">
        <ele>512.3</ele>
        <time>2021-06-01T08:58:26.934Z</time>
      </trkpt>
      <trkpt lat="44.35445" lon="3.44559">
        <ele>499.9</ele>
        <time>2021-06-01T08:58:38.522Z</time>
      </trkpt>
      <trkpt lat="44.35586" lon="3.44525">
        <ele>500.9</ele>
        <time>2021-06-01T08:58:59.703Z</time>
      </trkpt>
      <trkpt lat="44.35787" lon="3.44445">
        <ele>499.2</ele>
        <time>2021-06-01T08:59:26.251Z</time>
      </trkpt>
      <trkpt lat="44.3574" lon="3.44149">
        <ele>493.4</ele>
        <time>2021-06-01T08:59:48.208Z</time>
      </trkpt>
      <trkpt lat="44.35647" lon="3.43764">
        <ele>496.3</ele>
        <time>2021-06-01T09:00:32.528Z</time>
      </trkpt>
      <trkpt lat="44.357" lon="3.43573">
        <ele>495.1</ele>
        <time>2021-06-01T09:00:51.238Z</time>
      </trkpt>
      <trkpt lat="44.35872" lon="3.43475">
        <ele>480.2</ele>
        <time>2021-06-01T09:01:05.571Z</time>
      </trkpt>
      <trkpt lat="44.35986" lon="3.43423">
        <ele>476.4</ele>
        <time>2021-06-01T09:01:17.137Z</time>
      </trkpt>
      <trkpt lat="44.36316" lon="3.43432">
        <ele>482.1</ele>
        <time>2021-06-01T09:02:11.515Z</time>
      </trkpt>
      <trkpt lat="44.36532" lon="3.43325">
        <ele>481.5</ele>
        <time>2021-06-01T09:02:42.039Z</time>
      </trkpt>
      <trkpt lat="44.36581" lon="3.43211">
        <ele>477.6</ele>
        <time>2021-06-01T09:02:50.361Z</time>
      </trkpt>
      <trkpt lat="44.36566" lon="3.43035">
        <ele>482.7</ele>
        <time>2021-06-01T09:03:18.160Z</time>
      </trkpt>
      <trkpt lat="44.36438" lon="3.42538">
        <ele>499.5</ele>
        <time>2021-06-01T09:04:46.515Z</time>
      </trkpt>
      <trkpt lat="44.36513" lon="3.42164">
        <ele>482.4</ele>
        <time>2021-06-01T09:05:06.971Z</time>
      </trkpt>
      <trkpt lat="44.36504" lon="3.41877">
        <ele>494.1</ele>
        <time>2021-06-01T09:05:59.185Z</time>
      </trkpt>
      <trkpt lat="44.36498" lon="3.41477">
        <ele>492.8</ele>
        <time>2021-06-01T09:06:36.183Z</time>
      </trkpt>
      <trkpt lat="44.36467" lon="3.41082">
        <ele>470.4</ele>
        <time>2021-06-01T09:06:58.095Z</time>
      </trkpt>
      <trkpt lat="44.36569" lon="3.41022">
        <ele>474.9</ele>
        <time>2021-06-01T09:07:22.479Z</time>
      </trkpt>
      <trkpt lat="44.36572" lon="3.41152">
        <ele>475.8</ele>
        <time>2021-06-01T09:07:36.586Z</time>
      </trkpt>
      <trkpt lat="44.36587" lon="3.41132">
        <ele>477</ele>
        <time>2021-06-01T09:07:41.969Z</time>
      </trkpt>
      <trkpt lat="44.36627" lon="3.41174">
        <ele>486.6</ele>
        <time>2021-06-01T09:08:08.751Z</time>
      </trkpt>
      <trkpt lat="44.36657" lon="3.4117">
        <ele>493.4</ele>
        <time>2021-06-01T09:08:24.452Z</time>
      </trkpt>
      <trkpt lat="44.36656" lon="3.41137">
        <ele>491.2</ele>
        <time>2021-06-01T09:08:26.318Z</time>
      </trkpt>
      <trkpt lat="44.36662" lon="3.41099">
        <ele>489.4</ele>
        <time>2021-06-01T09:08:28.315Z</time>
      </trkpt>
      <trkpt lat="44.36635" lon="3.41082">
        <ele>483.6</ele>
        <time>2021-06-01T09:08:30.581Z</time>
      </trkpt>
      <trkpt lat="44.36605" lon="3.411">
        <ele>479.3</ele>
        <time>2021-06-01T09:08:33.073Z</time>
      </trkpt>
      <trkpt lat="44.36576" lon="3.41073">
        <ele>474.7</ele>
        <time>2021-06-01T09:08:35.792Z</time>
      </trkpt>
      <trkpt lat="44.36547" lon="3.41025">
        <ele>472.7</ele>
        <time>2021-06-01T09:08:39.580Z</time>
      </trkpt>
      <trkpt lat="44.36459" lon="3.41055">
        <ele>470.2</ele>
        <time>2021-06-01T09:08:48.798Z</time>
      </trkpt>
      <trkpt lat="44.3644" lon="3.41134">
        <ele>471.3</ele>
        <time>2021-06-01T09:08:58.703Z</time>
      </trkpt>
      <trkpt lat="44.3646" lon="3.41219">
        <ele>474.3</ele>
        <time>2021-06-01T09:09:13.952Z</time>
      </trkpt>
      <trkpt lat="44.36469" lon="3.41248">
        <ele>475.4</ele>
        <time>2021-06-01T09:09:19.316Z</time>
      </trkpt>
      <trkpt lat="44.3647" lon="3.41251">
        <ele>475.5</ele>
        <time>2021-06-01T09:09:19.871Z</time>
      </trkpt>
      <trkpt lat="44.36447" lon="3.41355">
        <ele>487.9</ele>
        <time>2021-06-01T09:10:01.483Z</time>
      </trkpt>
      <trkpt lat="44.36389" lon="3.41423">
        <ele>509</ele>
        <time>2021-06-01T09:10:41.948Z</time>
      </trkpt>
      <trkpt lat="44.36332" lon="3.41484">
        <ele>532.2</ele>
        <time>2021-06-01T09:11:20.321Z</time>
      </trkpt>
      <trkpt lat="44.36262" lon="3.41515">
        <ele>545.3</ele>
        <time>2021-06-01T09:11:59.580Z</time>
      </trkpt>
      <trkpt lat="44.36234" lon="3.41563">
        <ele>572.6</ele>
        <time>2021-06-01T09:12:23.261Z</time>
      </trkpt>
      <trkpt lat="44.36373" lon="3.41616">
        <ele>570.9</ele>
        <time>2021-06-01T09:12:40.703Z</time>
      </trkpt>
      <trkpt lat="44.3637" lon="3.4164">
        <ele>576.7</ele>
        <time>2021-06-01T09:12:50.017Z</time>
      </trkpt>
      <trkpt lat="44.36356" lon="3.41668">
        <ele>589.6</ele>
        <time>2021-06-01T09:13:03.078Z</time>
      </trkpt>
      <trkpt lat="44.36343" lon="3.4166">
        <ele>593.9</ele>
        <time>2021-06-01T09:13:10.671Z</time>
      </trkpt>
      <trkpt lat="44.36333" lon="3.4168">
        <ele>602.8</ele>
        <time>2021-06-01T09:13:20.001Z</time>
      </trkpt>
      <trkpt lat="44.36322" lon="3.41724">
        <ele>611.9</ele>
        <time>2021-06-01T09:13:37.819Z</time>
      </trkpt>
      <trkpt lat="44.36276" lon="3.41706">
        <ele>622.5</ele>
        <time>2021-06-01T09:14:03.358Z</time>
      </trkpt>
      <trkpt lat="44.36273" lon="3.41798">
        <ele>644</ele>
        <time>2021-06-01T09:14:38.563Z</time>
      </trkpt>
      <trkpt lat="44.36263" lon="3.41759">
        <ele>643.6</ele>
        <time>2021-06-01T09:14:42.071Z</time>
      </trkpt>
      <trkpt lat="44.36205" lon="3.41749">
        <ele>658.2</ele>
        <time>2021-06-01T09:15:13.317Z</time>
      </trkpt>
      <trkpt lat="44.36116" lon="3.41769">
        <ele>700.5</ele>
        <time>2021-06-01T09:16:01.514Z</time>
      </trkpt>
      <trkpt lat="44.36149" lon="3.41799">
        <ele>701.5</ele>
        <time>2021-06-01T09:16:08.625Z</time>
      </trkpt>
      <trkpt lat="44.36193" lon="3.41823">
        <ele>692.1</ele>
        <time>2021-06-01T09:16:12.271Z</time>
      </trkpt>
      <trkpt lat="44.36142" lon="3.4183">
        <ele>721.1</ele>
        <time>2021-06-01T09:16:39.670Z</time>
      </trkpt>
      <trkpt lat="44.36114" lon="3.41811">
        <ele>724</ele>
        <time>2021-06-01T09:16:50.190Z</time>
      </trkpt>
      <trkpt lat="44.36082" lon="3.41839">
        <ele>751.9</ele>
        <time>2021-06-01T09:17:10.372Z</time>
      </trkpt>
      <trkpt lat="44.36044" lon="3.4177">
        <ele>748</ele>
        <time>2021-06-01T09:17:14.915Z</time>
      </trkpt>
      <trkpt lat="44.3605" lon="3.41846">
        <ele>773.9</ele>
        <time>2021-06-01T09:17:44.144Z</time>
      </trkpt>
      <trkpt lat="44.36018" lon="3.41795">
        <ele>776.7</ele>
        <time>2021-06-01T09:17:56.530Z</time>
      </trkpt>
      <trkpt lat="44.36035" lon="3.41861">
        <ele>786.9</ele>
        <time>2021-06-01T09:18:23.347Z</time>
      </trkpt>
      <trkpt lat="44.36068" lon="3.41903">
        <ele>780.4</ele>
        <time>2021-06-01T09:18:26.791Z</time>
      </trkpt>
      <trkpt lat="44.36013" lon="3.41921">
        <ele>814.2</ele>
        <time>2021-06-01T09:18:56.993Z</time>
      </trkpt>
      <trkpt lat="44.36102" lon="3.41991">
        <ele>776</ele>
        <time>2021-06-01T09:19:04.875Z</time>
      </trkpt>
      <trkpt lat="44.36093" lon="3.4207">
        <ele>790</ele>
        <time>2021-06-01T09:19:35.455Z</time>
      </trkpt>
      <trkpt lat="44.36105" lon="3.42128">
        <ele>787.8</ele>
        <time>2021-06-01T09:19:38.921Z</time>
      </trkpt>
      <trkpt lat="44.36031" lon="3.42335">
        <ele>825.1</ele>
        <time>2021-06-01T09:21:07.392Z</time>
      </trkpt>
      <trkpt lat="44.35861" lon="3.42688">
        <ele>837.6</ele>
        <time>2021-06-01T09:22:15.020Z</time>
      </trkpt>
      <trkpt lat="44.35848" lon="3.42629">
        <ele>874.1</ele>
        <time>2021-06-01T09:22:38.622Z</time>
      </trkpt>
      <trkpt lat="44.35701" lon="3.42646">
        <ele>913.2</ele>
        <time>2021-06-01T09:23:57.488Z</time>
      </trkpt>
      <trkpt lat="44.355" lon="3.4266">
        <ele>931</ele>
        <time>2021-06-01T09:25:02.695Z</time>
      </trkpt>
      <trkpt lat="44.34159" lon="3.42639">
        <ele>1031.8</ele>
        <time>2021-06-01T09:31:31.930Z</time>
      </trkpt>
      <trkpt lat="44.34088" lon="3.42497">
        <ele>1061</ele>
        <time>2021-06-01T09:32:38.185Z</time>
      </trkpt>
      <trkpt lat="44.33945" lon="3.42295">
        <ele>1083.4</ele>
        <time>2021-06-01T09:33:59.546Z</time>
      </trkpt>
      <trkpt lat="44.33578" lon="3.42036">
        <ele>1138.1</ele>
        <time>2021-06-01T09:37:38.164Z</time>
      </trkpt>
      <trkpt lat="44.33322" lon="3.42145">
        <ele>1086.7</ele>
        <time>2021-06-01T09:37:58.822Z</time>
      </trkpt>
      <trkpt lat="44.33414" lon="3.41664">
        <ele>1067.8</ele>
        <time>2021-06-01T09:38:26.900Z</time>
      </trkpt>
      <trkpt lat="44.33509" lon="3.41269">
        <ele>1011.8</ele>
        <time>2021-06-01T09:38:49.910Z</time>
      </trkpt>
      <trkpt lat="44.33188" lon="3.41046">
        <ele>1027.5</ele>
        <time>2021-06-01T09:40:12.890Z</time>
      </trkpt>
      <trkpt lat="44.33054" lon="3.40608">
        <ele>1029.8</ele>
        <time>2021-06-01T09:41:03.239Z</time>
      </trkpt>
      <trkpt lat="44.32994" lon="3.40378">
        <ele>1035.3</ele>
        <time>2021-06-01T09:41:37.319Z</time>
      </trkpt>
      <trkpt lat="44.331" lon="3.40231">
        <ele>1028.3</ele>
        <time>2021-06-01T09:41:49.740Z</time>
      </trkpt>
      <trkpt lat="44.3293" lon="3.40056">
        <ele>1045.6</ele>
        <time>2021-06-01T09:42:54.458Z</time>
      </trkpt>
      <trkpt lat="44.32704" lon="3.39872">
        <ele>1038.5</ele>
        <time>2021-06-01T09:43:20.862Z</time>
      </trkpt>
      <trkpt lat="44.32663" lon="3.39133">
        <ele>1009.4</ele>
        <time>2021-06-01T09:44:02.038Z</time>
      </trkpt>
      <trkpt lat="44.32091" lon="3.38296">
        <ele>913.7</ele>
        <time>2021-06-01T09:45:05.961Z</time>
      </trkpt>
      <trkpt lat="44.32128" lon="3.3821">
        <ele>899</ele>
        <time>2021-06-01T09:45:11.503Z</time>
      </trkpt>
      <trkpt lat="44.31643" lon="3.38094">
        <ele>892.2</ele>
        <time>2021-06-01T09:46:09.550Z</time>
      </trkpt>
      <trkpt lat="44.31359" lon="3.38036">
        <ele>875.9</ele>
        <time>2021-06-01T09:46:31.490Z</time>
      </trkpt>
      <trkpt lat="44.3136" lon="3.38043">
        <ele>876.6</ele>
        <time>2021-06-01T09:46:34.220Z</time>
      </trkpt>
      <trkpt lat="44.31328" lon="3.37998">
        <ele>873.9</ele>
        <time>2021-06-01T09:46:37.616Z</time>
      </trkpt>
      <trkpt lat="44.31236" lon="3.37924">
        <ele>878.4</ele>
        <time>2021-06-01T09:47:01.671Z</time>
      </trkpt>
      <trkpt lat="44.31067" lon="3.37785">
        <ele>861.7</ele>
        <time>2021-06-01T09:47:16.809Z</time>
      </trkpt>
      <trkpt lat="44.30819" lon="3.37622">
        <ele>855.5</ele>
        <time>2021-06-01T09:47:45.901Z</time>
      </trkpt>
      <trkpt lat="44.30879" lon="3.37286">
        <ele>833.9</ele>
        <time>2021-06-01T09:48:05.031Z</time>
      </trkpt>
      <trkpt lat="44.30787" lon="3.36608">
        <ele>844.5</ele>
        <time>2021-06-01T09:49:30.237Z</time>
      </trkpt>
      <trkpt lat="44.30372" lon="3.35822">
        <ele>872</ele>
        <time>2021-06-01T09:52:01.724Z</time>
      </trkpt>
      <trkpt lat="44.30273" lon="3.35424">
        <ele>825.6</ele>
        <time>2021-06-01T09:52:25.001Z</time>
      </trkpt>
      <trkpt lat="44.30129" lon="3.35201">
        <ele>820.2</ele>
        <time>2021-06-01T09:52:47.189Z</time>
      </trkpt>
      <trkpt lat="44.3033" lon="3.35012">
        <ele>832.1</ele>
        <time>2021-06-01T09:53:45.576Z</time>
      </trkpt>
      <trkpt lat="44.30443" lon="3.34717">
        <ele>812.4</ele>
        <time>2021-06-01T09:54:04.060Z</time>
      </trkpt>
      <trkpt lat="44.30415" lon="3.34409">
        <ele>802.2</ele>
        <time>2021-06-01T09:54:22.707Z</time>
      </trkpt>
      <trkpt lat="44.30551" lon="3.34257">
        <ele>799.9</ele>
        <time>2021-06-01T09:54:43.412Z</time>
      </trkpt>
      <trkpt lat="44.30578" lon="3.33864">
        <ele>810.5</ele>
        <time>2021-06-01T09:55:43.083Z</time>
      </trkpt>
      <trkpt lat="44.30002" lon="3.33662">
        <ele>830.3</ele>
        <time>2021-06-01T09:57:41.600Z</time>
      </trkpt>
      <trkpt lat="44.30002" lon="3.33662">
        <ele>830.3</ele>
        <time>2021-06-01T09:57:41.600Z</time>
      </trkpt>
      <trkpt lat="44.30002" lon="3.33662">
        <ele>830.3</ele>
        <time>2021-06-01T09:57:41.600Z</time>
      </trkpt>
      <trkpt lat="44.29955" lon="3.33372">
        <ele>818.2</ele>
        <time>2021-06-01T09:57:57.857Z</time>
      </trkpt>
      <trkpt lat="44.29988" lon="3.32859">
        <ele>740.1</ele>
        <time>2021-06-01T09:58:26.313Z</time>
      </trkpt>
      <trkpt lat="44.29865" lon="3.32774">
        <ele>714.2</ele>
        <time>2021-06-01T09:58:36.906Z</time>
      </trkpt>
      <trkpt lat="44.29761" lon="3.32647">
        <ele>695.9</ele>
        <time>2021-06-01T09:58:47.568Z</time>
      </trkpt>
      <trkpt lat="44.29778" lon="3.32589">
        <ele>669.9</ele>
        <time>2021-06-01T09:58:51.031Z</time>
      </trkpt>
      <trkpt lat="44.29816" lon="3.32598">
        <ele>653.3</ele>
        <time>2021-06-01T09:58:54.006Z</time>
      </trkpt>
      <trkpt lat="44.29809" lon="3.32561">
        <ele>645.1</ele>
        <time>2021-06-01T09:58:56.120Z</time>
      </trkpt>
      <trkpt lat="44.29846" lon="3.32473">
        <ele>602.7</ele>
        <time>2021-06-01T09:59:01.759Z</time>
      </trkpt>
      <trkpt lat="44.29832" lon="3.32366">
        <ele>603.1</ele>
        <time>2021-06-01T09:59:13.084Z</time>
      </trkpt>
      <trkpt lat="44.29931" lon="3.32358">
        <ele>554</ele>
        <time>2021-06-01T09:59:20.739Z</time>
      </trkpt>
      <trkpt lat="44.2999" lon="3.32293">
        <ele>522.8</ele>
        <time>2021-06-01T09:59:26.539Z</time>
      </trkpt>
      <trkpt lat="44.3002" lon="3.32304">
        <ele>505.4</ele>
        <time>2021-06-01T09:59:28.933Z</time>
      </trkpt>
      <trkpt lat="44.30002" lon="3.32207">
        <ele>499.5</ele>
        <time>2021-06-01T09:59:34.469Z</time>
      </trkpt>
      <trkpt lat="44.30054" lon="3.32317">
        <ele>488</ele>
        <time>2021-06-01T09:59:41.752Z</time>
      </trkpt>
      <trkpt lat="44.30029" lon="3.32208">
        <ele>482.1</ele>
        <time>2021-06-01T09:59:48.076Z</time>
      </trkpt>
      <trkpt lat="44.29997" lon="3.32096">
        <ele>468.3</ele>
        <time>2021-06-01T09:59:54.738Z</time>
      </trkpt>
    </trkseg>
  </trk>
</gpx>